Погода в Зеледееве

Россия / Кемеровская область (Кузбасс)     56°02′19″N   84°52′22″E
темп.,
°C
ветер,
м/с
пор.,
м/с
влажн.,
%
обл.,
%
осадки,
мм/ч
давл.,
гПа
погр.,
м
17 октября, вс
вс1701:00+2всв22825 0.0 102710
04:00+1всв22833 0.0 102710
07:000всв228266 0.0 102611
10:00+3в126342 0.0 1026111
13:00+7в114856 0.0 1025372
16:00+8юв114672 0.0 1025452
19:00+4ю226169 0.0 102510
22:00+3ююз227048 0.0 102515
18 октября, пн
пн1801:00+2ююз227611 0.0 102424
04:00+1юз338178 0.0 102527
07:00+1юз348692 0.0 102561
10:00+3юз3680100 0.0 1025197
13:00+7юз4667100 0.0 1025482
16:00+8юз466121 0.0 1024684
19:00+4ююз38815 0.0 1025127
22:00+3ююз3787100 0.0 1026138
19 октября, вт
вт1901:00+3ююз37905 0.0 1026121
04:00+2ююз369131 0.0 1026101
07:00+1ююз369157 0.0 1026104
10:00+3ююз3880100 0.0 1027228
13:00+8юз5762100 0.0 1026455
16:00+8ююз4763100 0.0 1025510
19:00+5ююз377967 0.0 1025131
22:00+4ююз3681100 0.0 102597
20 октября, ср
ср2001:00+3ююз348146 0.0 102557
04:00+3ю33806 0.0 102437
07:00+2ююв23805 0.0 102325
10:00+4ююв36705 0.0 1023144
13:00+9ю354826 0.0 1021401
16:00+11ююв354553 0.0 1018476
19:00+6ююв336499 0.0 101837
22:00+5ю347175 0.0 101762
21 октября, чт
чт2101:00+4ю337869 0.0 101641
04:00+3ююв348098 0.0 101649
07:00+3ююв378176 0.0 101595
10:00+5ююв396795 0.0 1014206
13:00+11ю594379 0.0 1012431
16:00+12ю51043100 0.0 1011562
19:00+8ю41059100 0.0 1011190
22:00+5ю396799 0.0 1011154